EEL RIVER CAMP CA US current weather conditions

sailwx.info

Wind from 068 at 3 knots gusting 6

Air temperature 12.2° C
Dewpoint 9.8° C

Last reported at 2018-May-23 10:28 UTC.
Time now 2018-May-23 11:14 UTC

Location: N 40°08' W 123°49'.
View on Google Maps.

See reports from other nearby stations

  
Tides and Currents Weather Stations Pressure Air Temp Water Temp Dewpoint Dewpoint Depression Visibility Wind Speed Wind Dir Waves Ship Positions
date/time (UTC)wind fromknots sea level pressurealtimeterstation pressurevisibilityair tempwater tempwave heightnotes
2018-May-23 10:28 068 3 gusting 6 12.2
2018-May-23 09:28 049 3 gusting 7 12.2
2018-May-23 08:28 051 4 gusting 7 12.2
2018-May-23 07:28 051 1 gusting 6 12.2
2018-May-23 06:28 285 1 gusting 7 11.1
2018-May-23 05:28 045 3 gusting 10 12.2
2018-May-23 04:28 051 5 gusting 12 12.8
2018-May-23 03:28 053 6 gusting 13 14.4
2018-May-23 02:28 067 5 gusting 13 18.3
2018-May-23 01:28 066 6 gusting 12 22.8
2018-May-23 00:28 184 5 gusting 10 25.6
2018-May-22 23:28 167 6 gusting 10 27.2
2018-May-22 22:28 086 2 gusting 8 28.9
2018-May-22 21:28 079 3 gusting 7 27.2
2018-May-22 20:28 070 2 gusting 8 25.0
2018-May-22 19:28 071 3 gusting 7 23.3
2018-May-22 18:28 073 2 gusting 7 21.1
2018-May-22 17:28 219 0 gusting 6 18.3
2018-May-22 16:28 061 2 gusting 6 15.6
2018-May-22 15:28 063 2 gusting 6 12.8
2018-May-22 14:28 083 1 gusting 7 12.2
2018-May-22 13:28 058 4 gusting 8 11.1
2018-May-22 12:28 053 4 gusting 12 11.1
2018-May-22 11:28 046 6 gusting 12 11.1
2018-May-22 10:28 041 3 gusting 12 11.1
2018-May-22 09:28 055 6 gusting 13 11.1
2018-May-22 08:28 061 5 gusting 13 11.7
2018-May-22 07:28 045 6 gusting 14 11.1
2018-May-22 06:28 353 1 gusting 9 11.1
2018-May-22 05:28 357 1 gusting 6 10.6
2018-May-22 04:28 030 3 gusting 7 12.2
2018-May-22 03:28 057 2 gusting 11 13.3
2018-May-22 02:28 074 3 gusting 13 16.7
2018-May-22 01:28 048 6 gusting 12 18.3
2018-May-22 00:28 046 6 gusting 15 20.6
2018-May-21 23:28 337 5 gusting 14 22.2
2018-May-21 22:28 080 4 gusting 15 22.2
2018-May-21 21:28 043 6 gusting 15 21.1
2018-May-21 20:28 073 5 gusting 16 21.1
2018-May-21 19:28 083 4 gusting 17 20.6
2018-May-21 18:28 094 5 gusting 14 18.3
2018-May-21 17:28 079 6 gusting 15 16.7
2018-May-21 16:28 060 5 gusting 11 15.0
2018-May-21 15:28 063 4 gusting 9 11.7
2018-May-21 14:28 055 4 gusting 11 11.1
2018-May-21 13:28 058 6 gusting 13 10.6
2018-May-21 12:28 058 5 gusting 12 10.6
2018-May-21 11:28 062 5 gusting 13 11.1